Location: Fort Wayne
(41.1310°N, 85.1290°W)
Time: 11:24:49
(UTC-04:00)

SR - Visible Passes

Search period start: 07 July 2015 00:00
Search period end: 17 July 2015 00:00
Orbit: 583 x 878 km, 66.7° (Epoch: 07 July)

Date Brightness Start Highest point End Pass type
(mag) Time Alt. Az. Time Alt. Az. Time Alt. Az.
07 Jul ? 00:12:00 35° ENE 00:12:00 35° ENE 00:14:58 10° NE visible
07 Jul ? 01:51:24 16° WNW 01:53:12 20° NW 01:56:23 10° N visible
07 Jul ? 23:23:38 16° E 23:23:38 16° E 23:25:15 10° ENE visible
08 Jul ? 01:03:02 34° W 01:03:57 38° NW 01:08:01 10° NNE visible
09 Jul ? 00:14:33 74° SW 00:14:55 84° WNW 00:19:15 10° NNE visible
09 Jul ? 01:56:27 10° WNW 01:57:50 11° NW 01:59:04 10° NNW visible
09 Jul ? 23:25:54 42° ESE 23:26:03 42° ESE 23:30:08 10° NE visible
10 Jul ? 01:05:16 11° W 01:08:23 20° NW 01:11:36 10° N visible
10 Jul ? 22:37:01 19° ESE 22:37:19 19° ESE 22:40:23 10° ENE visible
11 Jul ? 00:16:22 18° WSW 00:19:07 39° NW 00:23:13 10° NNE visible
11 Jul ? 23:27:05 19° SSW 23:30:04 86° WNW 23:34:26 10° NNE visible
12 Jul ? 01:11:27 10° WNW 01:12:59 11° NW 01:14:22 10° NNW visible
12 Jul ? 22:37:16 10° S 22:41:13 41° ESE 22:45:18 10° NE visible
13 Jul ? 00:20:14 10° W 00:23:32 21° NW 00:26:48 10° N visible
13 Jul ? 21:49:37 10° SSE 21:52:29 18° ESE 21:55:31 10° ENE visible
13 Jul ? 23:30:16 10° SW 23:34:16 40° NW 23:38:24 10° NNE visible
14 Jul ? 22:41:00 10° SSW 22:45:14 88° WNW 22:49:36 10° NNE visible
15 Jul ? 00:26:28 10° WNW 00:28:08 12° NW 00:29:39 10° NNW visible
15 Jul ? 05:41:06 10° NNE 05:42:52 12° NE 05:44:52 10° ENE visible
15 Jul ? 21:52:26 10° S 21:56:22 40° ESE 22:00:27 10° NE visible
15 Jul ? 23:35:20 10° W 23:38:40 21° NW 23:42:01 10° N visible
16 Jul ? 22:45:23 10° SW 22:49:25 41° NW 22:53:35 10° NNE visible
